SCP
0 0 0 0 0 0 0 0 0 0 0 0 0 0 0 0 0 0 0 0 0 0 0 0 0 0 0 0 0 0 0 0 0 0 0 0 0 0 0 0 0 0 0
0 0 0 0 0 0 0 0 0 0 0 0 0 0 0 0 0 0 0 0 0 0 0 0 0 0 0 0 0 0 0 0 0 0 0 0 0 0 0 0 0 0 0
0 0 0 0 0 0 0 0 0 0 0 0 0 0 0 0 0 0 0 0 0 0 0 0 0 0 0 0 0 0 0 0 0 0 0 0 0 0 0 0 0 0 0
0 0 0 0 0 0 0 0 0 0 0 0 0 0 0 0 0 0 0 0 0 0 0 0 0 0 0 0 0 0 0 0 0 0 0 0 0 0 0 0 0 0 0
0 0 0 0 0 0 0 0 0 0 0 0 0 0 0 0 0 0 0 0 0 0 0 0 0 0 0 0 0 0 0 0 0 0 0 0 0 0 0 0 0 0 0
0 0 0 0 0 0 0 0 0 0 0 0 0 0 0 0 0 0 0 0 0 0 0 0 0 0 0 0 0 0 0 0 0 0 0 0 0 0 0 0 0 0 0
0 0 0 0 0 0 0 0 0 0 0 0 0 0 0 0 0 0 0 0 0 0 0 0 0 0 0 0 0 0 0 0 0 0 0 0 0 0 0 0 0 0 0
0 0 0 0 0 0 0 0 0 0 0 0 0 0 0 0 0 0 0 0 0 0 0 0 0 0 0 0 0 0 0 0 0 0 0 0 0 0 0 0 0 0 0
0 0 0 0 0 0 0 0 0 0 0 0 0 0 0 0 0 0 0 0 0 0 0 0 0 0 0 0 0 0 0 0 0 0 0 0 0 0 0 0 0 0 0
0 0 0 0 0 0 0 0 0 0 0 0 0 0 0 0 0 0 0 0 0 0 0 0 0 0 0 0 0 0 0 0 0 0 0 0 0 0 0 0 0 0 0
0 0 0 -0 -0 -0 -0 -0 -0 0 0 0 0 0 0 0 0 0 0 0 0 0 0 0 0 0 0 0 0 0 0 0 0 0 0 0 0 0 0 0 0 0 0
-0 -0 -0 -0 -0 -0 -0 -0 0 0 0 0 0 0 0 0 0 0 0 0 0 0 0 0 0 0 0 0 0 0 0 0 0 0 0 0 0 0 0 0 0 0 0
-0 -0 0 0 0 0 0 0 0 0 0 0 0 0 0 0 0 0 0 0 0 0 0 0 0 0 0 0 0 0 0 0 0 0 0 0 0 0 0 0 0 0 0
0 0 0 0 0 0 0 0 0 0 0 0 0 0 0 0 0 0 0 0 0 0 0 0 0 0 0 0 0 0 0 0 0 0 0 0 0 0 0 0 0 0 0
0 0 0 0 0 0 0 0 0 0 0 0 0 0 0 0 0 0 0 0 0 0 0 0 0 0 0 0 0 0 0 0 0 0 0 0 0 0 0 0 0 0 0
0 0 0 0 0 0 0 0 0 0 0 0 0 0 0 0 0 0 0 0 0 0 0 0 0 0 0 0 0 0 0 0 0 0 0 0 0 0 0 0 0 0 0
0 0 0 0 0 0 0 0 0 0 0 0 0 0 0 0 0 0 0 0 0 0 0 0 0 0 0 0 0 0 0 0 0 0 0 0 0 0 0 0 0 0 0
0 0 0 0 0 0 0 0 0 0 0 0 0 0 0 0 0 0 0 0 0 0 0 0 0 0 0 0 0 0 0 0 0 0 0 0 0 0 0 0 0 0 0
0 0 0 0 0 0 0 0 0 0 0 0 0 0 0 0 0 0 0 0 0 0 0 0 0 0 0 0 0 0 0 0 0 0 0 0 0 0 0 0 0 0 0
0 -0 0 0 0 0 0 0 0 0 0 0 0 0 0 0 0 0 0 0 0 0 0 0 0 0 0 0 0 0 0 0 0 0 0 0 0 0 0 0 0 0 0
-0 -0 -0 -0 0 -0 0 0 0 0 0 0 0 0 0 0 0 0 0 0 0 0 0 0 0 0 0 0 0 0 0 0 0 0 0 0 0 0 0 0 0 0 0
0 -0 -0 -0 0 -0 -0 0 0 0 0 0 0 0 0 0 0 0 0 0 0 0 0 0 0 0 0 0 0 0 0 0 0 0 0 0 0 0 0 0 0 0 0
-0 -0 -0 -0 -0 -0 -0 -0 0 0 0 0 0 0 0 0 0 0 0 0 0 0 0 0 0 0 0 0 0 0 0 0 0 0 0 0 0 0 0 0 0 0 0
-0 -0 -0 -0 -0 -0 0 0 0 0 0 0 0 0 0 0 0 0 0 0 0 0 0 0 0 0 0 0 0 0 0 0 0 0 0 0 0 0 0 0 0 0 0
-0 -0 -0 -0 -0 0 0 0 0 0 0 0 0 0 0 0 0 0 0 0 0 0 0 0 0 0 0 0 0 0 0 0 0 0 0 0 0 0 0 0 0 0 0
0 0 0 0 0 0 0 0 0 0 0 0 0 0 0 0 0 0 0 0 0 0 0 0 0 0 0 0 0 0 0 0 0 0 0 0 0 0 0 0 0 0 0
Wind_Speed_500mb
42 37 39 44 46 45 44 47 52 53 54 62 67 72 68 63 57 56 61 57 55 54 56 58 59 56 53 50 48 47 47 46 39 35 40 39 41 44 47 45 43 42 36
52 51 49 48 54 56 61 58 58 58 60 65 70 70 76 77 65 61 65 65 62 61 62 61 64 64 60 57 57 57 53 50 47 46 37 30 35 47 43 46 37 32 32
55 52 51 53 57 63 70 70 67 62 64 68 71 67 70 68 70 77 78 74 71 71 70 68 65 65 65 67 65 62 59 59 56 54 41 15 19 11 27 28 30 35 38
43 47 49 49 50 57 60 65 72 74 72 76 75 79 86 82 78 77 75 77 75 76 79 77 75 72 69 74 70 67 66 64 66 59 61 60 46 23 24 34 37 40 48
31 30 32 33 35 42 50 61 64 69 71 74 81 81 84 87 79 84 80 77 78 77 78 82 80 78 77 77 74 74 73 73 73 73 68 64 63 60 65 57 48 49 55
7 13 14 20 30 34 39 46 51 60 65 74 81 87 87 88 88 88 85 82 81 80 77 78 83 83 85 85 82 77 76 78 78 78 70 67 57 60 61 68 73 70 72
16 19 20 21 32 33 35 43 49 52 59 68 79 88 88 89 90 88 86 82 84 84 79 74 76 81 84 86 87 87 84 84 83 82 81 78 76 78 69 65 68 64 63
12 11 20 35 42 39 40 36 40 47 52 57 69 77 85 90 92 91 87 85 85 88 84 80 73 68 71 77 81 87 88 87 87 85 83 83 81 79 81 75 68 71 68
15 15 24 32 41 43 45 43 36 39 49 54 57 65 71 79 86 86 81 82 83 83 82 83 79 73 69 66 69 77 81 84 83 82 81 82 83 83 77 75 75 76 64
18 24 35 36 41 48 52 49 46 38 39 47 53 56 62 67 73 77 77 76 79 80 84 84 83 78 73 66 64 68 71 76 77 76 75 77 79 79 79 77 77 76 83
31 38 42 41 50 55 58 54 51 46 40 38 47 57 59 58 60 63 68 69 72 72 75 74 74 75 74 67 64 63 63 69 70 70 72 73 71 70 67 66 66 69 69
35 41 42 47 49 51 54 51 55 54 42 38 39 44 54 57 57 58 59 60 62 69 73 70 69 68 69 63 66 67 66 66 68 68 69 69 61 62 61 62 64 67 68
44 45 52 54 56 58 58 55 53 50 46 39 33 37 43 49 53 53 53 56 56 58 63 64 69 71 68 67 68 70 68 67 68 67 63 62 60 62 60 59 61 69 64
57 56 63 62 63 66 65 63 53 50 50 38 32 32 32 36 39 43 47 47 49 53 56 59 62 66 64 63 64 66 65 65 64 62 60 60 62 59 57 62 60 60 62
50 54 57 65 80 77 77 69 61 52 51 51 40 30 26 28 32 35 38 43 48 51 51 52 55 57 57 59 59 61 62 62 62 62 62 60 61 57 58 59 53 53 52
39 47 63 76 83 84 78 69 67 59 56 53 55 48 41 35 34 36 36 38 41 44 48 52 54 55 57 60 61 61 62 61 58 58 59 57 58 55 48 48 49 48 54
43 52 56 66 82 89 87 74 68 68 64 57 58 60 56 50 44 42 43 42 45 47 49 49 50 52 53 57 57 57 56 56 51 54 50 51 51 50 48 48 45 52 50
53 64 69 78 82 88 90 79 65 68 65 65 62 65 65 60 55 49 48 46 46 48 49 50 53 55 54 53 49 48 50 52 53 51 45 45 45 44 49 49 46 44 43
52 61 76 84 92 91 89 87 70 63 68 61 64 67 71 66 60 54 49 50 47 47 46 45 45 43 42 44 42 41 44 41 43 42 44 44 43 42 38 40 41 34 32
59 74 85 90 91 89 84 82 71 66 60 60 62 66 70 64 57 53 51 50 45 43 41 39 36 33 31 29 31 32 36 38 40 40 38 34 30 27 24 23 19 18 19
72 70 80 89 91 90 81 77 70 63 57 56 56 58 60 57 54 51 48 45 41 39 37 33 30 28 29 28 27 24 23 23 25 26 25 23 23 19 18 19 17 15 15
86 86 87 92 90 86 78 74 66 62 57 51 53 52 52 52 49 46 41 36 33 33 30 28 28 28 27 21 20 19 20 17 18 20 19 16 12 10 10 10 12 11 11
87 91 91 95 91 78 73 71 64 58 56 50 48 47 45 45 43 39 34 33 31 30 30 29 26 23 22 19 18 18 17 16 15 14 15 12 11 12 10 8 8 7 8
88 89 90 89 89 78 68 64 62 55 50 47 41 37 35 35 35 35 34 34 34 32 29 28 26 25 23 20 19 19 17 17 19 16 16 15 14 14 10 10 10 12 12
75 80 81 81 79 75 67 60 57 51 44 39 35 34 33 33 35 37 36 37 35 33 31 29 27 26 24 21 20 19 17 14 16 17 20 20 17 16 13 11 10 9 7
70 69 68 69 69 65 61 54 48 45 39 35 33 35 35 36 37 38 38 36 31 29 28 26 27 26 24 22 20 18 18 18 19 18 19 18 17 16 13 10 8 6 5
Wind_Direction_500mb
256 255 247 243 251 243 244 243 238 242 238 240 238 238 237 238 237 236 241 242 244 243 240 240 240 240 242 244 246 247 243 244 243 240 252 262 261 274 276 279 278 279 276
258 255 249 241 247 250 251 251 252 244 245 242 248 244 244 244 244 249 246 247 247 247 246 245 245 246 245 245 244 243 245 247 245 241 251 261 278 276 271 266 271 274 272
262 259 253 247 248 250 248 250 245 248 249 249 242 243 245 248 249 246 251 251 247 248 249 250 249 249 249 249 248 249 249 251 250 246 234 233 238 266 264 263 265 277 280
259 262 259 255 251 253 259 254 250 249 250 246 243 241 245 247 254 254 256 257 254 250 251 252 252 250 251 252 252 252 252 251 250 252 243 245 244 260 269 267 270 268 276
270 273 273 271 270 259 251 257 259 256 248 243 239 246 245 249 254 255 254 256 258 257 253 254 253 252 251 254 255 255 253 253 254 250 255 257 254 258 256 271 268 270 276
318 324 308 295 298 291 278 264 262 260 253 242 242 241 247 249 249 251 253 255 253 257 257 253 254 254 254 255 257 258 257 257 257 259 252 256 254 261 257 260 267 269 279
330 326 344 346 349 330 293 280 273 262 251 252 245 246 249 250 252 254 255 254 254 255 259 257 254 255 255 256 256 256 256 257 259 259 261 260 260 267 262 267 273 270 273
332 32 2 358 352 345 336 312 272 267 254 246 250 248 248 247 247 251 250 252 252 256 260 259 259 258 256 256 256 256 257 259 260 262 264 265 266 264 267 265 263 270 273
48 2 348 339 351 350 345 335 311 281 266 252 248 247 248 246 247 247 248 247 248 251 256 260 261 258 258 255 254 253 254 258 260 263 264 264 267 267 264 265 265 264 269
346 336 342 342 352 354 347 343 332 306 280 261 254 247 245 249 250 250 244 245 249 250 253 255 259 260 258 253 251 251 254 255 258 260 262 264 263 263 264 266 265 270 266
340 333 337 341 336 337 335 336 335 318 293 276 264 256 254 250 249 251 253 248 247 248 249 254 255 255 255 252 247 249 251 252 254 256 257 258 261 264 265 267 268 269 269
337 335 338 338 336 333 327 326 329 329 303 288 272 263 258 257 255 252 254 251 249 249 250 249 247 247 253 249 245 246 248 248 249 251 254 259 259 261 265 268 270 271 271
338 345 342 338 336 330 326 324 321 320 320 292 281 267 260 255 255 255 252 251 248 245 246 245 246 248 245 250 248 247 247 248 249 251 252 256 260 261 264 268 273 276 276
336 339 340 339 337 334 330 324 313 315 309 312 289 274 263 259 255 254 253 251 250 247 247 249 248 248 252 251 254 252 251 250 252 253 255 256 261 263 262 262 272 272 273
333 339 340 335 337 333 334 323 318 306 303 298 295 290 279 270 263 261 263 261 256 253 251 252 252 253 253 253 253 254 254 255 257 258 259 260 257 260 262 261 265 270 265
338 335 331 333 335 336 326 320 316 314 299 293 287 284 282 276 273 271 268 269 270 268 258 254 254 255 255 255 255 256 258 262 260 262 264 262 259 263 262 255 258 263 262
334 332 329 328 330 334 333 315 307 300 302 288 281 278 277 277 275 274 272 270 269 266 263 260 255 252 251 252 253 254 256 256 253 255 256 260 258 247 255 259 262 263 261
332 328 326 328 331 335 334 324 307 293 293 283 277 274 272 274 276 276 276 274 272 268 265 262 259 256 252 250 248 245 246 252 255 257 249 246 250 261 267 265 263 261 264
324 320 323 324 325 329 325 326 313 299 293 285 275 272 268 269 273 274 274 273 272 270 267 263 259 256 255 252 247 245 244 243 246 247 247 249 254 260 261 260 260 258 250
323 322 322 321 322 326 323 320 318 306 295 286 275 268 263 263 266 268 267 269 269 268 264 259 256 249 246 242 240 242 244 241 238 243 249 247 242 246 248 251 243 240 236
322 322 319 319 320 323 323 320 318 312 301 290 278 268 264 264 264 262 261 262 260 258 255 249 242 236 235 238 235 232 237 237 234 222 223 230 241 250 239 235 231 225 217
319 318 320 316 316 318 320 316 314 310 303 292 282 272 266 263 261 260 259 255 250 250 236 225 226 228 234 229 228 229 231 235 222 227 220 219 230 214 202 202 207 210 217
315 317 316 316 316 316 316 311 309 307 302 293 282 273 265 260 256 253 247 237 231 225 221 225 226 223 221 222 220 218 222 217 220 220 209 203 219 233 216 181 183 207 223
314 315 315 315 313 315 311 307 304 302 296 290 282 274 262 253 246 238 229 228 226 220 220 221 221 219 216 214 211 209 212 217 220 220 222 222 224 226 206 186 190 204 206
312 313 314 313 312 312 309 304 300 297 291 281 274 265 252 242 236 225 220 219 220 219 220 225 229 225 219 214 212 205 203 207 217 214 212 214 213 212 211 215 223 223 214
314 315 316 313 313 311 308 303 295 292 287 272 263 254 244 231 225 221 216 210 213 215 218 220 223 219 217 216 214 213 212 218 226 217 220 217 216 219 219 214 200 191 182
Wind_Speed_850mb
42 37 39 44 46 45 44 47 52 53 54 62 67 72 68 63 57 56 61 57 55 54 56 58 59 56 53 50 48 47 47 46 39 35 40 39 41 44 47 45 43 42 36
52 51 49 48 54 56 61 58 58 58 60 65 70 70 76 77 65 61 65 65 62 61 62 61 64 64 60 57 57 57 53 50 47 46 37 30 35 47 43 46 37 32 32
55 52 51 53 57 63 70 70 67 62 64 68 71 67 70 68 70 77 78 74 71 71 70 68 65 65 65 67 65 62 59 59 56 54 41 15 19 11 27 28 30 35 38
43 47 49 49 50 57 60 65 72 74 72 76 75 79 86 82 78 77 75 77 75 76 79 77 75 72 69 74 70 67 66 64 66 59 61 60 46 23 24 34 37 40 48
31 30 32 33 35 42 50 61 64 69 71 74 81 81 84 87 79 84 80 77 78 77 78 82 80 78 77 77 74 74 73 73 73 73 68 64 63 60 65 57 48 49 55
7 13 14 20 30 34 39 46 51 60 65 74 81 87 87 88 88 88 85 82 81 80 77 78 83 83 85 85 82 77 76 78 78 78 70 67 57 60 61 68 73 70 72
16 19 20 21 32 33 35 43 49 52 59 68 79 88 88 89 90 88 86 82 84 84 79 74 76 81 84 86 87 87 84 84 83 82 81 78 76 78 69 65 68 64 63
12 11 20 35 42 39 40 36 40 47 52 57 69 77 85 90 92 91 87 85 85 88 84 80 73 68 71 77 81 87 88 87 87 85 83 83 81 79 81 75 68 71 68
15 15 24 32 41 43 45 43 36 39 49 54 57 65 71 79 86 86 81 82 83 83 82 83 79 73 69 66 69 77 81 84 83 82 81 82 83 83 77 75 75 76 64
18 24 35 36 41 48 52 49 46 38 39 47 53 56 62 67 73 77 77 76 79 80 84 84 83 78 73 66 64 68 71 76 77 76 75 77 79 79 79 77 77 76 83
31 38 42 41 50 55 58 54 51 46 40 38 47 57 59 58 60 63 68 69 72 72 75 74 74 75 74 67 64 63 63 69 70 70 72 73 71 70 67 66 66 69 69
35 41 42 47 49 51 54 51 55 54 42 38 39 44 54 57 57 58 59 60 62 69 73 70 69 68 69 63 66 67 66 66 68 68 69 69 61 62 61 62 64 67 68
44 45 52 54 56 58 58 55 53 50 46 39 33 37 43 49 53 53 53 56 56 58 63 64 69 71 68 67 68 70 68 67 68 67 63 62 60 62 60 59 61 69 64
57 56 63 62 63 66 65 63 53 50 50 38 32 32 32 36 39 43 47 47 49 53 56 59 62 66 64 63 64 66 65 65 64 62 60 60 62 59 57 62 60 60 62
50 54 57 65 80 77 77 69 61 52 51 51 40 30 26 28 32 35 38 43 48 51 51 52 55 57 57 59 59 61 62 62 62 62 62 60 61 57 58 59 53 53 52
39 47 63 76 83 84 78 69 67 59 56 53 55 48 41 35 34 36 36 38 41 44 48 52 54 55 57 60 61 61 62 61 58 58 59 57 58 55 48 48 49 48 54
43 52 56 66 82 89 87 74 68 68 64 57 58 60 56 50 44 42 43 42 45 47 49 49 50 52 53 57 57 57 56 56 51 54 50 51 51 50 48 48 45 52 50
53 64 69 78 82 88 90 79 65 68 65 65 62 65 65 60 55 49 48 46 46 48 49 50 53 55 54 53 49 48 50 52 53 51 45 45 45 44 49 49 46 44 43
52 61 76 84 92 91 89 87 70 63 68 61 64 67 71 66 60 54 49 50 47 47 46 45 45 43 42 44 42 41 44 41 43 42 44 44 43 42 38 40 41 34 32
59 74 85 90 91 89 84 82 71 66 60 60 62 66 70 64 57 53 51 50 45 43 41 39 36 33 31 29 31 32 36 38 40 40 38 34 30 27 24 23 19 18 19
72 70 80 89 91 90 81 77 70 63 57 56 56 58 60 57 54 51 48 45 41 39 37 33 30 28 29 28 27 24 23 23 25 26 25 23 23 19 18 19 17 15 15
86 86 87 92 90 86 78 74 66 62 57 51 53 52 52 52 49 46 41 36 33 33 30 28 28 28 27 21 20 19 20 17 18 20 19 16 12 10 10 10 12 11 11
87 91 91 95 91 78 73 71 64 58 56 50 48 47 45 45 43 39 34 33 31 30 30 29 26 23 22 19 18 18 17 16 15 14 15 12 11 12 10 8 8 7 8
88 89 90 89 89 78 68 64 62 55 50 47 41 37 35 35 35 35 34 34 34 32 29 28 26 25 23 20 19 19 17 17 19 16 16 15 14 14 10 10 10 12 12
75 80 81 81 79 75 67 60 57 51 44 39 35 34 33 33 35 37 36 37 35 33 31 29 27 26 24 21 20 19 17 14 16 17 20 20 17 16 13 11 10 9 7
70 69 68 69 69 65 61 54 48 45 39 35 33 35 35 36 37 38 38 36 31 29 28 26 27 26 24 22 20 18 18 18 19 18 19 18 17 16 13 10 8 6 5
Wind_Direction_850mb
256 255 247 243 251 243 244 243 238 242 238 240 238 238 237 238 237 236 241 242 244 243 240 240 240 240 242 244 246 247 243 244 243 240 252 262 261 274 276 279 278 279 276
258 255 249 241 247 250 251 251 252 244 245 242 248 244 244 244 244 249 246 247 247 247 246 245 245 246 245 245 244 243 245 247 245 241 251 261 278 276 271 266 271 274 272
262 259 253 247 248 250 248 250 245 248 249 249 242 243 245 248 249 246 251 251 247 248 249 250 249 249 249 249 248 249 249 251 250 246 234 233 238 266 264 263 265 277 280
259 262 259 255 251 253 259 254 250 249 250 246 243 241 245 247 254 254 256 257 254 250 251 252 252 250 251 252 252 252 252 251 250 252 243 245 244 260 269 267 270 268 276
270 273 273 271 270 259 251 257 259 256 248 243 239 246 245 249 254 255 254 256 258 257 253 254 253 252 251 254 255 255 253 253 254 250 255 257 254 258 256 271 268 270 276
318 324 308 295 298 291 278 264 262 260 253 242 242 241 247 249 249 251 253 255 253 257 257 253 254 254 254 255 257 258 257 257 257 259 252 256 254 261 257 260 267 269 279
330 326 344 346 349 330 293 280 273 262 251 252 245 246 249 250 252 254 255 254 254 255 259 257 254 255 255 256 256 256 256 257 259 259 261 260 260 267 262 267 273 270 273
332 32 2 358 352 345 336 312 272 267 254 246 250 248 248 247 247 251 250 252 252 256 260 259 259 258 256 256 256 256 257 259 260 262 264 265 266 264 267 265 263 270 273
48 2 348 339 351 350 345 335 311 281 266 252 248 247 248 246 247 247 248 247 248 251 256 260 261 258 258 255 254 253 254 258 260 263 264 264 267 267 264 265 265 264 269
346 336 342 342 352 354 347 343 332 306 280 261 254 247 245 249 250 250 244 245 249 250 253 255 259 260 258 253 251 251 254 255 258 260 262 264 263 263 264 266 265 270 266
340 333 337 341 336 337 335 336 335 318 293 276 264 256 254 250 249 251 253 248 247 248 249 254 255 255 255 252 247 249 251 252 254 256 257 258 261 264 265 267 268 269 269
337 335 338 338 336 333 327 326 329 329 303 288 272 263 258 257 255 252 254 251 249 249 250 249 247 247 253 249 245 246 248 248 249 251 254 259 259 261 265 268 270 271 271
338 345 342 338 336 330 326 324 321 320 320 292 281 267 260 255 255 255 252 251 248 245 246 245 246 248 245 250 248 247 247 248 249 251 252 256 260 261 264 268 273 276 276
336 339 340 339 337 334 330 324 313 315 309 312 289 274 263 259 255 254 253 251 250 247 247 249 248 248 252 251 254 252 251 250 252 253 255 256 261 263 262 262 272 272 273
333 339 340 335 337 333 334 323 318 306 303 298 295 290 279 270 263 261 263 261 256 253 251 252 252 253 253 253 253 254 254 255 257 258 259 260 257 260 262 261 265 270 265
338 335 331 333 335 336 326 320 316 314 299 293 287 284 282 276 273 271 268 269 270 268 258 254 254 255 255 255 255 256 258 262 260 262 264 262 259 263 262 255 258 263 262
334 332 329 328 330 334 333 315 307 300 302 288 281 278 277 277 275 274 272 270 269 266 263 260 255 252 251 252 253 254 256 256 253 255 256 260 258 247 255 259 262 263 261
332 328 326 328 331 335 334 324 307 293 293 283 277 274 272 274 276 276 276 274 272 268 265 262 259 256 252 250 248 245 246 252 255 257 249 246 250 261 267 265 263 261 264
324 320 323 324 325 329 325 326 313 299 293 285 275 272 268 269 273 274 274 273 272 270 267 263 259 256 255 252 247 245 244 243 246 247 247 249 254 260 261 260 260 258 250
323 322 322 321 322 326 323 320 318 306 295 286 275 268 263 263 266 268 267 269 269 268 264 259 256 249 246 242 240 242 244 241 238 243 249 247 242 246 248 251 243 240 236
322 322 319 319 320 323 323 320 318 312 301 290 278 268 264 264 264 262 261 262 260 258 255 249 242 236 235 238 235 232 237 237 234 222 223 230 241 250 239 235 231 225 217
319 318 320 316 316 318 320 316 314 310 303 292 282 272 266 263 261 260 259 255 250 250 236 225 226 228 234 229 228 229 231 235 222 227 220 219 230 214 202 202 207 210 217
315 317 316 316 316 316 316 311 309 307 302 293 282 273 265 260 256 253 247 237 231 225 221 225 226 223 221 222 220 218 222 217 220 220 209 203 219 233 216 181 183 207 223
314 315 315 315 313 315 311 307 304 302 296 290 282 274 262 253 246 238 229 228 226 220 220 221 221 219 216 214 211 209 212 217 220 220 222 222 224 226 206 186 190 204 206
312 313 314 313 312 312 309 304 300 297 291 281 274 265 252 242 236 225 220 219 220 219 220 225 229 225 219 214 212 205 203 207 217 214 212 214 213 212 211 215 223 223 214
314 315 316 313 313 311 308 303 295 292 287 272 263 254 244 231 225 221 216 210 213 215 218 220 223 219 217 216 214 213 212 218 226 217 220 217 216 219 219 214 200 191 182